Location: Bieg
(49.3499°N, 10.3835°E)
Time: 00:59:47
(UTC+00:00)

CZ-2C R/B - Pass Details

Date: 23 May 2024
Orbit: 783 x 868 km, 98.3° (Epoch: 15 June)

Event Time Altitude Azimuth Distance (km) Brightness Sun altitude
Exits shadow 02:29:14 - 213° (SSW) 2,421 4.4 -7.8°
Reaches altitude 10° 02:29:30 10° 215° (SW) 2,339 4.4 -7.8°
Maximum altitude 02:33:36 24° 268° (W) 1,594 3.8 -7.3°
Drops below altitude 10° 02:37:45 10° 322° (NW) 2,358 5.1 -6.8°
Sets 02:40:33 0° 336° (NNW) 3,299 6.0 -6.5°
